Dewpoint
-4 -5 -5 -6 -6 -6 -6 -6 -4 -4 -9 -8 -5 -3 -4 -11 -13 -16 -14 -12 -10 -5 -5 -6 -8 -11 -12 -11 -14 -15 -11 -9 -11 -12 -12 -12 -11 -11 -10 -2 -5 3 1 3 11
-2 -3 -4 -5 -5 -6 -6 -6 -4 -7 -9 -5 -4 -4 -3 -8 -13 -14 -10 -4 -3 -4 -6 -6 -10 -11 -11 -11 -11 -13 -9 -10 -11 -13 -11 -9 -10 -12 -6 3 5 2 0 5 11
-2 -2 -3 -4 -5 -6 -6 -4 -5 -9 -7 -5 -6 -3 -1 -4 -10 -4 -3 -4 -6 -6 -6 -5 -9 -9 -9 -10 -10 -8 -7 -10 -8 -10 -9 -7 -7 -9 -8 -1 3 -2 1 6 10
-2 -2 -3 -4 -5 -6 -5 -4 -7 -9 -7 -6 -6 -2 -2 -4 -9 -4 -4 -4 -6 -7 -6 -5 -6 -5 -6 -6 -8 -8 -7 -8 -8 -8 -7 -7 -8 -7 -8 -9 -8 -4 -3 1 6
-2 -3 -4 -5 -6 -5 -4 -4 -7 -8 -8 -8 -3 -2 -3 -3 -3 -3 -4 -5 -5 -8 -7 -5 -5 -5 -4 -5 -6 -7 -7 -7 -6 -7 -7 -7 -8 -8 -8 -9 -6 -0 2 1 -0
-3 -4 -5 -5 -5 -4 -4 -4 -6 -8 -9 -3 -1 -2 -3 -4 -3 -3 -3 -5 -5 -10 -9 -5 -5 -4 -4 -3 -5 -5 -5 -6 -6 -6 -6 -6 -7 -7 -8 -9 -7 -1 2 1 1
-3 -3 -3 -3 -3 -3 -3 -4 -6 -6 -2 -2 -0 -3 -3 -3 -4 -3 -4 -4 -6 -4 -4 -5 -5 -5 -4 -3 -4 -5 -4 -5 -5 -5 -7 -8 -10 -9 -10 -9 -7 -3 1 2 1
-2 -2 -3 -4 -5 -5 -5 -5 -4 -3 -3 -3 -1 -2 -3 -4 -4 -4 -4 -4 -5 -4 -4 -3 -3 -5 -4 -4 -3 -5 -6 -4 -6 -6 -8 -10 -7 -10 -9 -7 -8 -4 0 2 1
-0 -1 -2 -3 -3 -3 -4 -5 -5 -4 -4 -2 -2 -1 -3 -4 -5 -6 -7 -9 -6 -4 -4 -4 -4 -5 -6 -7 -5 -5 -4 -5 -5 -5 -4 -8 -6 -8 -6 -5 -7 -8 -3 -2 -2
0 -1 -1 -2 -2 -3 -3 -4 -5 -4 -2 -2 -2 -3 -4 -5 -5 -6 -8 -6 -4 -5 -4 -3 -4 -5 -5 -5 -3 -3 -4 -4 -4 -4 -3 -2 -4 -5 -4 -7 -7 -7 -7 -6 -5
-0 -1 -1 -2 -3 1 1 -2 -1 -3 -5 -5 -5 -5 -6 -5 -5 -6 -12 -8 -6 -7 -3 -5 -4 -5 -6 -6 -5 -6 -3 -1 -3 -4 -1 -1 -1 -2 -5 -7 -7 -7 -7 -7 -6
-1 -1 -2 -2 -2 1 1 3 3 1 -3 -5 -6 -6 -6 -6 -6 -6 -9 -6 -6 -5 -7 -3 -3 -6 -6 -5 -5 -3 -2 -2 -2 -3 -1 -1 -1 -7 -8 -7 -5 -4 -4 -5 -5
-1 -2 -2 -3 -2 -4 -3 1 -0 -0 0 -5 -5 -5 -5 -6 -6 -5 -6 -5 -5 -6 -4 -2 -5 -7 -5 -4 -4 -4 -2 -2 -1 -1 -2 -1 -1 -5 -6 -5 -5 -5 -4 -4 -5
-2 -2 -3 -3 -3 -2 -4 -3 -2 0 0 -2 -4 -5 -5 -6 -6 -5 -5 -5 -6 -6 -6 -4 -8 -7 -4 -4 -4 -2 -4 -2 -1 1 2 -1 2 -3 -6 -6 -5 -5 -5 -5 -5
-4 -3 -2 -3 -3 -0 -3 -3 -3 1 4 -2 -5 -5 -5 -6 -6 -4 -3 -5 -5 -3 -5 -3 -8 -5 -4 -4 -4 -1 -2 -0 1 2 1 0 -0 -1 -3 -5 -3 -4 -4 -4 -4
-6 -3 -2 -3 2 0 1 -5 -1 6 5 -3 -5 -4 -4 -4 -4 -3 -2 -3 -2 -1 -2 -2 -6 -6 -5 -4 -2 -2 1 1 1 2 4 1 1 1 -1 -3 -3 -3 -3 -4 -4
-6 -4 -4 -3 0 -1 0 -3 6 5 1 -1 -2 -4 -3 -3 -3 -1 -0 1 1 -2 2 2 -0 -2 -3 -1 -1 0 3 4 3 5 5 2 1 0 -2 -3 -4 -4 -3 -2 -2
-2 -5 -5 -3 -0 -1 -3 5 4 3 1 -2 -3 -3 -2 -3 -2 0 -0 2 0 1 4 5 3 1 -1 -1 0 1 2 4 4 7 6 2 3 1 -3 -1 -2 -1 -1 -1 -1
-2 -1 -3 -3 -1 -2 5 4 3 3 -1 -1 -1 0 1 1 -1 -0 1 2 1 1 3 5 3 1 1 1 -1 2 4 1 3 4 5 4 2 -0 -2 0 0 -0 -0 0 -0
1 -1 -2 -2 -1 5 3 2 -0 -2 -1 1 1 1 2 3 2 1 2 1 1 2 1 3 6 2 2 1 0 0 0 4 4 4 7 6 5 4 1 2 -0 0 0 0 0
7 -2 2 1 4 2 2 1 -2 -2 -1 1 2 3 3 3 3 3 3 1 1 1 1 2 4 3 1 2 3 3 4 3 4 5 7 7 6 2 1 1 0 0 1 1 1
6 0 5 6 4 3 1 -1 -1 1 0 1 2 2 3 3 4 4 4 2 0 1 3 2 3 4 3 1 1 1 3 3 6 6 4 5 5 -1 -1 0 1 2 2 2 2
3 4 4 5 3 2 1 2 2 1 2 2 2 1 2 3 4 3 3 1 0 1 2 1 3 3 0 -0 -0 3 3 3 3 2 5 5 3 -1 -1 1 2 3 3 2 2
2 3 3 4 3 1 2 2 2 2 1 1 1 2 2 3 2 3 4 3 2 2 2 1 3 2 4 0 3 4 4 3 3 3 4 4 3 1 1 3 3 3 3 2 2
2 2 4 3 3 3 3 3 3 3 1 1 3 3 2 3 3 5 4 4 2 2 2 2 4 3 3 3 3 4 4 4 5 4 5 4 4 2 2 3 3 3 3 3 3
3 3 2 3 4 1 2 2 4 2 2 2 4 3 3 4 3 5 4 4 4 3 3 3 3 4 4 4 4 5 4 4 4 4 4 3 2 1 3 3 3 3 3 3 2
4 4 1 3 2 1 2 1 2 2 2 1 2 2 1 3 3 3 3 3 3 3 3 3 2 4 3 4 3 2 2 3 2 1 1 3 1 3 4 3 3 3 3 3 3
Wind_Speed
9 8 9 7 8 7 8 10 11 11 12 9 9 8 7 7 9 8 10 10 14 18 18 14 6 6 8 6 4 4 5 2 1 2 3 5 3 6 8 8 1 1 3 7 23
6 6 7 7 8 8 10 13 13 12 11 11 9 8 4 6 12 12 13 16 18 17 18 18 12 12 9 8 5 7 5 5 1 3 2 3 4 2 4 5 2 5 6 20 24
3 4 6 7 8 11 14 14 14 12 13 10 7 6 3 4 10 14 18 19 20 14 17 17 10 13 11 9 6 3 4 4 3 4 5 3 0 2 13 1 9 13 17 24 22
3 5 7 9 12 15 15 14 13 12 11 7 5 7 8 3 4 11 14 16 16 15 13 17 18 11 6 5 6 5 1 4 1 5 3 2 1 0 2 4 7 12 13 22 22
6 9 11 14 16 16 16 13 12 11 9 5 5 7 9 11 7 10 10 10 11 13 15 14 22 7 5 3 4 4 2 4 4 3 4 3 4 3 7 5 13 16 21 20 18
12 15 18 18 18 17 16 13 11 10 6 6 5 3 5 6 10 11 8 11 7 14 15 15 11 7 6 4 4 4 6 9 5 9 6 1 4 2 4 8 16 23 24 21 20
15 18 19 18 17 15 15 14 12 10 10 7 7 5 6 5 9 10 9 6 8 10 11 11 13 9 7 3 8 4 5 7 4 6 2 1 5 6 4 4 21 26 26 25 22
18 18 18 17 17 16 16 15 14 12 8 6 6 5 3 7 5 5 6 3 6 6 9 7 10 5 5 4 5 5 5 5 7 2 5 2 10 10 5 8 22 25 29 29 26
18 17 16 15 15 14 13 11 10 8 4 3 3 4 2 6 9 9 16 14 5 4 6 5 6 5 4 4 5 7 2 3 6 5 4 2 8 13 13 13 17 26 30 29 26
16 15 15 14 13 11 9 9 9 5 2 3 5 4 5 7 8 12 15 7 6 10 5 5 3 4 5 6 0 3 3 4 4 5 7 5 9 11 9 13 20 19 25 24 23
13 14 14 13 12 10 7 10 6 4 8 5 4 4 5 6 6 12 15 6 6 6 4 5 6 2 1 2 3 1 1 3 4 3 7 5 9 11 13 4 5 2 12 12 9
11 12 12 11 10 8 9 7 6 4 4 5 7 5 5 7 5 16 13 4 6 3 3 6 3 2 4 5 5 3 2 4 6 5 2 7 10 8 9 5 6 18 18 17 13
10 11 11 10 8 5 7 9 8 3 3 2 2 3 5 5 5 11 15 5 6 5 4 5 1 5 4 5 6 3 2 3 5 7 2 6 5 6 6 10 9 10 12 14 14
10 10 10 7 6 5 9 8 3 1 4 5 3 3 5 3 6 11 11 5 6 3 1 2 3 3 6 3 1 4 3 2 6 4 2 5 3 5 4 4 7 5 7 11 12
11 11 10 8 6 6 6 4 1 0 5 4 1 2 5 4 2 10 10 2 3 3 4 2 3 5 6 4 2 6 7 4 3 3 2 8 4 6 6 4 4 3 7 7 6
9 11 10 8 6 6 4 3 1 6 1 1 1 2 3 5 4 7 17 5 5 4 5 4 3 3 2 2 3 8 4 5 4 3 2 1 3 6 3 3 3 0 4 3 4
8 9 10 9 7 4 5 3 5 5 3 1 2 3 3 4 6 5 5 10 5 5 6 6 4 5 4 5 6 8 6 4 4 4 4 2 2 5 3 2 1 7 9 19 15
8 7 7 7 6 7 6 5 6 1 2 3 3 3 4 5 5 6 3 5 6 5 3 4 5 5 6 1 3 3 3 4 3 1 4 6 2 4 6 16 16 18 16 12 6
9 10 8 7 8 7 3 5 6 5 2 2 3 4 5 5 3 4 4 2 3 5 3 5 4 4 1 3 1 3 5 1 5 3 2 4 5 6 6 7 9 13 7 9 12
9 13 10 8 7 4 5 2 1 0 1 2 3 1 2 5 3 4 3 3 4 7 1 2 4 2 6 3 4 4 2 4 4 2 3 5 6 5 5 11 18 17 11 11 9
4 5 7 6 3 4 4 3 2 3 1 3 2 3 2 2 2 2 0 2 2 4 8 2 3 6 3 4 2 4 4 5 3 3 3 3 5 5 5 8 10 7 11 12 4
4 4 4 3 4 3 2 3 3 4 7 5 4 3 2 2 4 3 3 2 0 2 2 1 3 3 3 7 4 4 5 4 3 3 2 3 7 5 5 10 7 11 14 15 9
4 4 7 3 3 2 1 4 4 3 5 3 2 3 4 2 3 2 3 2 3 2 1 1 2 3 6 6 4 4 3 3 3 2 6 3 5 3 20 7 5 11 15 17 21
3 2 5 5 5 6 4 2 3 5 4 5 3 5 4 5 5 2 3 5 7 3 1 2 2 5 5 5 4 6 4 3 5 3 4 11 17 17 8 4 13 18 19 22 26
3 2 2 1 4 4 3 2 4 2 3 6 5 4 3 2 2 2 2 5 4 3 3 3 2 3 5 7 7 13 12 16 7 10 6 10 11 12 5 5 14 19 22 25 26
3 5 4 4 3 3 4 1 5 2 2 2 6 1 4 4 4 3 3 2 4 2 3 2 3 3 4 7 9 15 13 11 12 9 8 9 9 0 6 11 14 20 23 27 26
5 7 4 2 3 4 2 1 3 7 4 6 11 4 2 3 5 5 7 7 7 5 3 2 4 1 5 5 9 6 7 4 4 5 5 5 5 3 7 13 20 26 29 26 30
Wind_Direction
260 256 251 242 233 217 201 185 166 156 142 137 106 79 55 68 69 68 49 30 13 11 12 16 40 46 67 80 103 94 65 65 157 142 281 346 89 63 84 125 70 25 156 157 167
251 242 234 225 211 191 183 170 173 149 137 123 96 47 55 72 80 74 44 24 7 7 25 29 73 86 71 71 55 79 87 203 206 157 200 351 68 56 88 121 111 144 144 157 172
251 225 208 200 183 175 166 167 153 138 137 115 71 35 32 86 79 35 36 35 24 35 36 41 87 67 68 61 32 66 144 185 222 225 182 191 61 92 131 220 187 179 164 171 180
167 171 171 165 160 154 152 151 141 144 132 106 51 33 59 122 96 36 34 26 33 29 31 52 70 61 50 48 44 77 215 193 156 170 199 186 142 190 189 224 193 201 191 183 188
122 131 136 137 139 139 140 143 144 138 119 88 51 58 78 80 35 33 44 30 19 27 30 44 41 36 57 26 49 69 315 301 335 307 293 311 293 286 260 239 206 199 191 189 193
117 119 120 121 124 132 136 137 132 120 107 86 57 76 83 70 33 23 25 34 7 41 42 41 36 49 60 42 67 329 331 307 328 278 277 223 271 292 264 230 202 199 202 196 192
108 110 113 119 122 128 133 131 124 127 121 92 58 77 73 56 35 20 10 11 25 19 28 37 24 24 8 33 358 351 352 345 322 274 242 197 317 241 262 246 206 203 209 202 203
111 113 114 118 125 126 123 121 128 128 110 59 33 59 84 48 22 348 360 327 315 344 11 0 358 26 19 330 27 40 45 13 317 62 17 75 262 272 266 289 222 215 211 209 210
112 111 114 117 115 113 114 117 122 120 85 31 22 37 42 34 38 14 355 345 355 28 333 332 13 36 23 58 22 17 343 338 319 57 14 215 273 263 289 282 242 224 214 210 212
113 112 114 114 110 102 104 115 113 104 59 0 25 87 38 12 3 358 351 8 353 351 58 52 57 61 30 49 180 291 343 319 256 312 346 308 269 276 301 263 245 244 226 222 225
118 119 119 115 105 92 98 116 120 84 59 42 54 75 40 10 355 348 352 2 21 46 27 21 63 73 310 215 208 184 79 314 281 288 352 302 286 299 318 115 105 102 200 201 206
125 125 123 123 121 94 124 97 104 109 67 72 55 67 55 26 29 23 19 60 47 36 9 29 64 303 100 56 61 24 358 309 297 297 355 323 308 337 34 42 78 117 124 123 118
137 135 135 139 137 90 101 110 111 85 97 60 22 23 30 33 2 2 17 38 51 39 20 125 240 59 73 41 30 312 214 273 253 321 267 329 346 5 17 78 97 100 109 114 113
161 152 149 150 151 111 103 122 101 63 75 311 9 21 20 353 25 8 9 27 27 72 16 62 19 54 60 52 82 323 204 265 300 23 266 39 291 6 324 74 55 71 119 140 146
176 173 171 166 154 132 136 129 40 221 64 273 342 65 11 67 351 19 12 40 70 318 72 292 33 52 54 307 345 253 301 269 208 195 74 343 65 300 354 34 351 96 155 155 152
172 183 183 178 159 160 156 151 72 47 90 350 68 41 55 19 37 54 37 61 52 61 24 1 27 58 295 328 325 298 355 34 58 96 29 144 125 318 332 253 260 216 56 344 263
137 167 187 190 190 189 179 169 46 95 289 9 58 67 87 10 31 55 43 38 39 31 7 341 349 326 26 12 354 15 32 2 12 6 224 7 41 217 289 309 12 60 1 323 298
108 129 166 175 183 169 159 55 76 313 15 350 33 56 73 19 24 18 56 28 11 45 62 43 338 10 335 66 266 340 80 134 196 286 291 342 199 227 195 78 69 10 343 327 286
105 106 107 152 155 153 142 59 186 208 281 36 52 70 1 3 104 75 61 50 35 16 65 16 288 320 295 309 87 328 37 187 101 6 26 294 294 285 221 357 46 3 350 60 76
104 82 73 117 138 134 77 160 140 112 38 82 105 24 110 350 50 73 32 324 354 27 148 350 312 342 296 3 36 92 141 37 15 43 306 299 288 240 311 345 3 6 55 39 51
82 82 62 106 108 77 117 208 106 47 61 64 107 86 76 114 58 76 69 314 345 358 61 55 104 290 340 17 277 355 30 41 106 123 210 301 259 213 349 14 328 46 17 15 23
70 63 42 85 61 46 105 125 87 16 62 64 81 86 94 46 44 86 133 168 279 357 45 348 140 295 264 282 281 110 135 105 118 276 242 198 265 316 90 23 61 19 9 2 342
79 85 37 72 111 340 343 60 75 58 33 60 68 64 62 95 94 74 139 68 39 18 84 172 357 357 353 344 0 92 156 129 87 85 216 196 264 231 341 20 3 341 340 341 330
109 49 47 66 88 123 114 95 102 63 68 76 100 81 67 43 23 100 48 12 17 341 99 87 137 170 208 244 252 292 241 250 177 182 233 242 275 287 305 313 324 331 331 324 321
75 90 105 304 12 101 88 118 121 112 80 46 38 41 124 98 42 69 19 343 341 65 80 90 248 238 246 261 269 273 280 288 245 234 225 273 277 280 225 285 311 310 319 315 309
127 143 114 90 100 92 8 129 154 102 92 45 122 111 93 142 171 205 178 210 241 8 86 18 274 317 290 272 271 279 271 253 269 282 250 258 276 355 329 324 301 303 310 313 321
134 133 149 4 74 81 233 188 148 124 43 151 151 114 80 195 198 247 242 238 241 185 180 191 146 132 270 354 318 306 245 211 239 234 216 251 259 335 306 302 309 311 311 317 325
Height
1506 1506 1507 1507 1510 1511 1513 1515 1514 1515 1516 1520 1521 1521 1520 1518 1517 1518 1518 1520 1517 1515 1514 1510 1510 1507 1507 1509 1511 1512 1530 1543 1531 1532 1529 1523 1521 1521 1523 1524 1526 1524 1525 1525 1529
1504 1505 1506 1507 1510 1511 1512 1514 1516 1515 1516 1520 1520 1521 1521 1519 1518 1520 1522 1520 1517 1516 1513 1509 1508 1509 1508 1511 1513 1513 1535 1532 1524 1525 1528 1526 1523 1523 1525 1526 1527 1524 1526 1526 1529
1502 1503 1505 1506 1508 1510 1513 1515 1515 1515 1519 1520 1523 1524 1523 1519 1522 1522 1521 1520 1518 1515 1515 1512 1511 1512 1510 1514 1516 1521 1531 1526 1524 1524 1527 1527 1524 1522 1525 1527 1526 1524 1526 1527 1528
1502 1503 1504 1506 1508 1510 1512 1513 1515 1517 1521 1523 1525 1526 1521 1521 1529 1524 1522 1522 1520 1520 1517 1514 1513 1513 1516 1518 1518 1526 1524 1523 1521 1524 1527 1524 1523 1521 1522 1522 1521 1523 1524 1525 1527
1502 1503 1504 1506 1508 1511 1513 1516 1518 1521 1523 1525 1527 1524 1523 1524 1525 1522 1523 1523 1521 1519 1519 1515 1515 1517 1520 1520 1521 1524 1524 1524 1522 1523 1524 1524 1524 1522 1520 1521 1521 1522 1523 1525 1527
1505 1505 1506 1508 1511 1514 1516 1518 1521 1523 1525 1527 1526 1526 1526 1527 1527 1524 1522 1521 1522 1520 1519 1521 1519 1521 1521 1520 1523 1525 1523 1522 1522 1524 1524 1524 1523 1524 1518 1517 1518 1520 1520 1523 1525
1507 1507 1509 1512 1514 1516 1519 1521 1524 1527 1527 1527 1527 1527 1527 1529 1527 1526 1526 1525 1524 1521 1522 1522 1522 1522 1521 1520 1521 1524 1525 1523 1523 1522 1523 1522 1525 1522 1517 1516 1515 1515 1517 1521 1522
1510 1512 1513 1515 1518 1520 1522 1524 1526 1526 1526 1527 1528 1529 1529 1529 1528 1527 1527 1526 1525 1523 1521 1521 1523 1524 1525 1524 1525 1529 1532 1541 1526 1522 1523 1525 1532 1516 1516 1514 1513 1513 1514 1516 1518
1514 1515 1517 1519 1521 1522 1523 1524 1525 1526 1528 1530 1531 1530 1530 1530 1528 1527 1526 1524 1523 1524 1525 1525 1525 1527 1526 1531 1540 1541 1548 1541 1534 1527 1527 1526 1526 1513 1512 1511 1508 1509 1511 1513 1517
1516 1518 1519 1521 1523 1524 1524 1526 1528 1530 1532 1531 1530 1531 1531 1531 1530 1529 1528 1526 1526 1525 1525 1526 1527 1531 1535 1540 1559 1549 1546 1542 1540 1531 1528 1526 1524 1511 1509 1507 1505 1506 1509 1513 1516
1519 1520 1521 1523 1524 1526 1527 1529 1534 1535 1532 1533 1533 1533 1533 1534 1533 1531 1527 1526 1526 1526 1531 1529 1536 1542 1537 1536 1536 1538 1541 1544 1536 1530 1530 1528 1525 1512 1506 1505 1505 1505 1508 1512 1516
1521 1522 1524 1526 1527 1528 1529 1530 1533 1536 1535 1535 1535 1535 1535 1534 1533 1531 1529 1529 1529 1534 1531 1536 1541 1535 1534 1535 1536 1538 1540 1544 1537 1531 1534 1529 1524 1515 1512 1513 1512 1510 1512 1514 1516
1523 1525 1526 1527 1529 1530 1529 1531 1533 1534 1536 1537 1537 1535 1535 1535 1534 1533 1532 1531 1532 1535 1536 1541 1537 1534 1535 1540 1542 1541 1541 1542 1544 1537 1530 1530 1526 1522 1518 1517 1519 1519 1519 1519 1520
1524 1525 1527 1528 1532 1530 1531 1533 1535 1536 1546 1542 1537 1537 1537 1535 1535 1534 1534 1535 1534 1538 1536 1538 1536 1537 1540 1541 1542 1547 1536 1538 1540 1543 1548 1534 1547 1528 1523 1522 1523 1523 1523 1522 1522
1523 1525 1527 1529 1530 1531 1534 1534 1535 1536 1577 1542 1538 1538 1536 1537 1538 1538 1536 1535 1537 1537 1540 1542 1539 1541 1543 1542 1539 1542 1534 1537 1536 1542 1543 1542 1549 1537 1527 1526 1525 1523 1522 1523 1523
1523 1525 1528 1530 1531 1533 1534 1535 1536 1552 1565 1542 1538 1538 1538 1538 1539 1541 1539 1537 1538 1539 1540 1543 1540 1540 1541 1539 1539 1536 1535 1537 1539 1545 1559 1543 1548 1551 1537 1531 1526 1524 1526 1525 1523
1524 1525 1528 1529 1531 1532 1534 1535 1551 1566 1541 1545 1541 1539 1541 1543 1543 1545 1548 1549 1555 1554 1559 1550 1546 1542 1541 1544 1540 1542 1547 1567 1562 1570 1564 1544 1547 1547 1533 1530 1527 1529 1529 1525 1523
1524 1525 1527 1529 1530 1532 1534 1538 1555 1552 1546 1541 1541 1541 1546 1545 1549 1549 1552 1560 1555 1557 1564 1566 1565 1548 1544 1546 1548 1547 1551 1575 1573 1579 1571 1547 1552 1542 1531 1531 1530 1532 1528 1523 1521
1526 1526 1528 1529 1531 1533 1535 1558 1561 1552 1545 1545 1544 1549 1553 1549 1549 1553 1560 1563 1561 1559 1565 1569 1560 1547 1546 1545 1545 1548 1559 1552 1569 1577 1583 1563 1546 1534 1530 1530 1531 1530 1526 1524 1524
1527 1527 1529 1531 1532 1534 1538 1552 1546 1544 1544 1545 1550 1552 1557 1556 1555 1557 1562 1562 1561 1559 1558 1563 1569 1552 1548 1545 1545 1546 1549 1564 1575 1590 1574 1564 1558 1547 1533 1533 1527 1528 1529 1527 1526
1528 1529 1533 1533 1534 1534 1551 1552 1545 1545 1545 1547 1550 1553 1555 1556 1556 1561 1565 1563 1560 1559 1559 1561 1568 1560 1551 1553 1553 1555 1560 1563 1566 1577 1580 1581 1560 1535 1535 1536 1535 1533 1532 1528 1527
1529 1532 1534 1533 1536 1542 1547 1542 1544 1546 1546 1547 1549 1552 1555 1557 1560 1561 1563 1561 1560 1560 1563 1564 1571 1577 1561 1553 1550 1552 1562 1565 1579 1575 1581 1581 1556 1531 1535 1534 1534 1533 1530 1529 1527
1531 1534 1535 1534 1548 1552 1544 1545 1546 1547 1548 1549 1552 1552 1554 1558 1564 1560 1562 1562 1562 1562 1563 1564 1576 1585 1568 1560 1553 1556 1559 1562 1569 1577 1569 1579 1559 1531 1529 1533 1534 1532 1530 1527 1525
1533 1539 1536 1536 1539 1542 1545 1547 1549 1549 1550 1551 1553 1553 1557 1562 1561 1564 1564 1563 1562 1562 1562 1563 1571 1575 1583 1569 1565 1562 1559 1559 1564 1580 1565 1556 1544 1537 1536 1535 1532 1529 1527 1523 1519
1534 1538 1539 1546 1543 1542 1544 1546 1549 1551 1551 1552 1555 1557 1558 1566 1565 1567 1566 1565 1563 1563 1563 1566 1573 1570 1569 1567 1564 1558 1556 1552 1557 1555 1558 1544 1542 1535 1534 1534 1531 1528 1525 1521 1516
1534 1537 1539 1542 1543 1544 1547 1548 1550 1551 1552 1555 1558 1558 1558 1563 1563 1566 1566 1567 1566 1565 1565 1568 1576 1570 1569 1564 1561 1556 1550 1550 1548 1546 1546 1542 1539 1531 1532 1531 1529 1525 1522 1517 1512
1535 1536 1538 1544 1544 1548 1551 1548 1549 1550 1553 1553 1555 1559 1562 1560 1560 1561 1562 1562 1562 1564 1568 1569 1576 1579 1577 1572 1569 1562 1545 1542 1540 1537 1538 1543 1534 1532 1530 1528 1524 1518 1515 1511 1508